Location: Del Amo
(33.8464°N, 118.2104°W)
Time: 18:19:53
(UTC+00:00)

Vanguard 3 - Pass Details

Date: 22 September 2024
Orbit: 507 x 3224 km, 33.4° (Epoch: 05 October)

Event Time Altitude Azimuth Distance (km) Brightness Sun altitude
Rises 20:28:09 0° 283° (WNW) 7,009 12.0 54.6°
Reaches altitude 10° 20:34:51 10° 271° (W) 5,679 11.7 54.1°
Maximum altitude 20:45:25 21° 231° (SW) 4,064 11.7 53.2°
Drops below altitude 10° 20:53:23 10° 188° (S) 4,113 11.5 52.4°
Sets 20:57:14 0° 172° (S) 4,662 11.5 52.1°
